Kosmos-1884

operational
NORAD ID: 18356 Int'l Des: 1987-079 Owner: UNKS Country: SU Constellation: GLONASS
MEOCIRCULAR

About Kosmos-1884

Description loading...

Live Position

Loading 3D Globe...

Upcoming Passes

Altitude History

Altitude vs Time

uPlot chart will show altitude changes over time

Two-Line Element Set

1 18356U 87079B 26019.73017211 -.00000049 00000-0 00000-0 0 9998
2 18356 65.7020 324.0770 0020050 209.1351 287.5604 2.13102961298507
Epoch: Jan 19, 2026 • Age: 38 hours

Current Status

Altitude 19128.3 km
Velocity 3.96 km/s
Sub-Earth Point -65.72°S, 1.4°W
Launch Date Sep 16, 1987
Age 38.3 years
Type other

Technical Details

Classification Payload
Mass 1300.00 kg
Dry Mass 1200.00 kg
Total Mass 1300.00 kg
Length 4.00 m
Diameter 1.50 m
Span 7.80 m
Shape Cyl + Ant + 2 Pan
Manufacturer OAZ
Bus Type Uragan
Phase Status In Orbit
Owner/State UNKS/SU

Large Constellations

Loading constellations...